Total_Precipitation_Accumulation
0.03 0.07 0.14 0.21 0.20 0.15 0.10 0.08 0.10 0.13 0.23 0.40 0.61 0.76 0.86 0.89 0.94 0.84 0.79 0.82 0.85 0.94 1.03 1.12 1.22 1.22 1.21 1.29 1.31 1.46 1.80 1.96 2.12 2.12 2.09 2.19 2.27 2.28 2.34 2.34 2.28 2.48 2.50 2.47
0.04 0.06 0.09 0.13 0.17 0.14 0.10 0.10 0.12 0.15 0.27 0.42 0.66 0.74 0.83 0.84 0.88 0.86 0.91 0.98 1.07 1.10 1.16 1.20 1.30 1.41 1.44 1.46 1.54 1.74 2.16 2.47 2.57 2.59 2.60 2.63 2.68 2.68 2.68 2.62 2.75 2.77 2.62 2.55
0.07 0.09 0.11 0.17 0.16 0.15 0.14 0.13 0.18 0.24 0.35 0.47 0.65 0.84 0.94 0.85 0.75 0.80 0.89 0.94 1.01 1.15 1.27 1.30 1.38 1.48 1.59 1.68 1.75 1.90 2.16 2.37 2.47 2.56 2.64 2.79 2.82 2.82 2.81 2.83 2.85 2.85 2.89 2.84
0.13 0.15 0.23 0.21 0.23 0.24 0.24 0.25 0.28 0.41 0.54 0.60 0.67 0.79 0.85 0.76 0.77 0.83 0.89 0.97 1.06 1.11 1.29 1.45 1.61 1.80 2.04 2.18 2.26 2.27 2.37 2.54 2.64 2.62 2.65 2.71 2.70 2.63 2.66 2.81 2.83 2.78 2.71 2.63
0.26 0.26 0.25 0.29 0.35 0.35 0.36 0.48 0.54 0.66 0.80 0.88 0.87 0.87 1.00 0.92 0.89 0.95 1.04 1.16 1.34 1.48 1.55 1.69 1.83 1.99 2.17 2.44 2.60 2.63 2.55 2.66 2.77 2.85 2.90 2.79 2.68 2.71 2.77 2.84 2.71 2.63 2.56 2.55
0.39 0.43 0.46 0.42 0.48 0.46 0.51 0.90 0.85 0.92 1.04 1.12 1.21 1.49 1.51 1.23 1.22 1.16 1.17 1.28 1.41 1.58 1.70 1.75 1.91 2.01 2.11 2.28 2.41 2.49 2.53 2.63 2.75 2.84 3.00 3.10 3.03 3.05 3.01 2.93 2.82 2.76 2.67 2.67
0.50 0.57 0.57 0.52 0.50 0.56 1.02 1.42 1.20 1.15 1.22 1.34 1.51 1.56 1.46 1.31 1.35 1.35 1.24 1.26 1.31 1.39 1.56 1.64 1.72 1.85 2.03 2.11 2.10 2.18 2.25 2.27 2.46 2.71 2.93 3.08 3.18 3.16 3.16 3.08 2.96 2.75 2.58 2.51
0.73 0.92 1.03 0.70 0.63 0.97 1.29 1.25 1.37 1.30 1.33 1.43 1.48 1.52 1.55 1.58 1.58 1.47 1.36 1.24 1.25 1.34 1.47 1.56 1.72 1.96 2.13 2.17 2.16 2.19 2.27 2.39 2.53 2.75 2.84 2.87 2.98 3.02 3.14 3.11 3.02 2.91 2.67 2.45
1.15 1.29 1.16 0.85 0.93 1.04 1.07 1.26 1.36 1.39 1.43 1.47 1.48 1.47 1.42 1.40 1.44 1.48 1.36 1.33 1.29 1.32 1.45 1.67 1.90 2.15 2.37 2.39 2.44 2.48 2.51 2.60 2.67 2.74 2.82 2.88 2.94 2.94 2.93 2.90 2.76 2.66 2.53 2.41
1.45 1.60 1.37 1.16 1.12 1.18 1.24 1.37 1.47 1.60 1.69 1.64 1.54 1.42 1.42 1.43 1.42 1.48 1.44 1.38 1.35 1.35 1.46 1.67 1.80 1.93 2.17 2.33 2.38 2.55 2.56 2.48 2.45 2.46 2.52 2.58 2.68 2.72 2.68 2.60 2.52 2.45 2.37 2.29
1.83 2.02 1.85 1.63 1.44 1.41 1.47 1.71 1.86 1.84 1.78 1.72 1.71 1.67 1.71 1.68 1.57 1.49 1.46 1.49 1.49 1.53 1.62 1.66 1.69 1.75 1.88 2.07 2.21 2.42 2.54 2.55 2.57 2.57 2.59 2.61 2.67 2.75 2.62 2.48 2.45 2.32 2.18 2.20
2.17 2.09 2.16 2.03 1.66 1.62 1.67 1.82 1.93 1.87 1.87 1.93 1.93 1.83 1.69 1.63 1.57 1.54 1.53 1.57 1.63 1.67 1.71 1.72 1.70 1.78 1.90 2.06 2.28 2.55 2.58 2.51 2.54 2.59 2.65 2.72 2.75 2.81 2.86 2.59 2.50 2.35 2.23 2.16
1.85 1.92 1.99 1.90 1.80 1.83 1.88 1.93 1.99 1.98 1.92 1.96 1.98 1.87 1.69 1.57 1.54 1.54 1.60 1.59 1.68 1.75 1.71 1.67 1.64 1.76 1.91 2.11 2.34 2.56 2.59 2.59 2.60 2.57 2.60 2.64 2.61 2.56 2.60 2.50 2.30 2.22 2.10 1.96
1.90 1.98 2.13 2.12 2.09 2.04 2.20 2.28 2.26 2.20 2.13 2.06 2.00 1.87 1.74 1.76 1.74 1.67 1.69 1.75 1.71 1.65 1.58 1.62 1.67 1.65 1.74 1.92 2.19 2.45 2.52 2.59 2.63 2.59 2.50 2.48 2.41 2.36 2.32 2.32 2.17 2.00 1.90 1.82
1.98 1.94 2.07 2.03 2.11 2.14 2.28 2.42 2.46 2.44 2.35 2.19 2.01 1.87 1.68 1.70 1.89 1.92 1.93 1.99 1.86 1.69 1.64 1.61 1.58 1.51 1.55 1.68 1.85 2.14 2.30 2.25 2.21 2.22 2.19 2.17 2.10 2.03 1.97 1.91 1.95 1.99 1.85 1.72
1.83 1.91 1.93 2.00 2.01 1.99 2.05 2.17 2.30 2.33 2.27 2.12 1.93 1.82 1.68 1.65 1.70 1.78 1.90 1.94 1.96 1.86 1.71 1.61 1.63 1.59 1.49 1.58 1.70 1.77 1.85 1.96 1.85 1.74 1.73 1.75 1.74 1.74 1.70 1.71 1.79 1.91 1.85 1.65
1.89 1.99 1.98 2.03 2.02 1.94 1.83 1.90 2.04 2.08 2.07 2.02 1.88 1.70 1.58 1.58 1.71 1.80 1.84 1.77 1.67 1.63 1.55 1.48 1.49 1.50 1.44 1.54 1.60 1.55 1.47 1.48 1.51 1.39 1.43 1.56 1.62 1.63 1.62 1.67 1.73 1.79 1.72 1.56
1.71 1.79 1.86 1.89 1.80 1.82 1.83 1.83 1.88 1.80 1.86 1.81 1.66 1.56 1.55 1.70 1.89 1.92 1.76 1.59 1.51 1.50 1.48 1.36 1.23 1.15 1.18 1.22 1.23 1.19 1.12 1.12 1.13 1.12 1.24 1.36 1.39 1.44 1.52 1.57 1.61 1.64 1.55 1.40
1.60 1.53 1.55 1.56 1.45 1.54 1.68 1.68 1.74 1.70 1.72 1.66 1.58 1.60 1.62 1.70 1.77 1.73 1.54 1.48 1.47 1.44 1.36 1.24 1.19 0.99 0.94 0.94 0.99 0.98 1.00 1.06 1.09 1.10 1.19 1.22 1.23 1.30 1.44 1.51 1.53 1.53 1.45 1.38
1.48 1.39 1.36 1.38 1.33 1.36 1.47 1.46 1.45 1.48 1.49 1.48 1.59 1.66 1.60 1.57 1.50 1.45 1.39 1.40 1.36 1.28 1.17 1.10 1.03 1.01 1.00 0.99 1.02 0.99 1.02 1.06 1.09 1.05 1.03 1.06 1.12 1.17 1.23 1.26 1.30 1.34 1.32 1.27
1.28 1.24 1.24 1.33 1.38 1.31 1.33 1.28 1.28 1.31 1.36 1.43 1.55 1.59 1.52 1.47 1.39 1.41 1.50 1.46 1.29 1.12 1.09 1.14 1.03 1.00 0.98 1.01 0.98 0.94 0.99 1.05 1.08 1.14 1.15 1.14 1.14 1.16 1.18 1.15 1.16 1.19 1.21 1.24
1.33 1.22 1.16 1.17 1.27 1.30 1.22 1.15 1.11 1.08 1.13 1.22 1.21 1.28 1.42 1.51 1.44 1.42 1.47 1.49 1.35 1.32 1.12 1.03 0.99 1.01 1.02 0.98 0.95 1.03 1.07 1.13 1.20 1.26 1.29 1.28 1.29 1.31 1.29 1.24 1.23 1.21 1.26 1.28
1.40 1.32 1.28 1.26 1.30 1.36 1.23 1.13 1.05 1.03 1.08 1.10 1.07 1.15 1.29 1.42 1.43 1.42 1.38 1.27 1.17 1.28 1.17 1.10 1.14 1.10 1.07 1.00 1.09 1.20 1.19 1.22 1.25 1.28 1.31 1.34 1.38 1.39 1.39 1.38 1.42 1.40 1.40 1.44
1.48 1.34 1.28 1.21 1.18 1.24 1.26 1.17 1.08 1.02 1.00 1.01 1.01 1.08 1.21 1.29 1.30 1.22 1.17 1.16 1.10 1.11 1.08 1.18 1.20 1.16 1.11 1.07 1.18 1.23 1.24 1.28 1.31 1.31 1.29 1.32 1.37 1.33 1.39 1.45 1.47 1.46 1.44 1.45
1.58 1.41 1.28 1.20 1.18 1.16 1.17 1.15 1.07 0.95 0.88 0.91 0.87 0.89 0.98 1.10 1.20 1.16 1.09 1.02 1.00 0.99 1.03 1.13 1.15 1.19 1.14 1.14 1.17 1.20 1.23 1.34 1.39 1.35 1.31 1.32 1.33 1.33 1.35 1.35 1.32 1.32 1.33 1.39
1.63 1.52 1.41 1.28 1.15 1.10 1.09 1.11 1.12 1.05 0.98 0.97 0.93 0.94 0.99 1.00 1.01 1.08 1.13 1.08 1.03 1.03 1.06 1.10 1.11 1.12 1.10 1.14 1.22 1.24 1.24 1.31 1.35 1.35 1.35 1.36 1.38 1.39 1.31 1.23 1.18 1.18 1.20 1.23
1.51 1.47 1.39 1.27 1.16 1.07 1.07 1.11 1.14 1.13 1.10 1.13 1.09 1.07 1.14 1.13 1.10 1.09 1.06 1.01 0.97 0.97 1.02 1.04 1.03 0.99 0.95 0.94 0.96 1.01 1.06 1.11 1.15 1.23 1.30 1.32 1.29 1.26 1.20 1.14 1.11 1.08 1.08 1.06